Weather History for Lafayette, IN

Change the Weather History Date:

Friday, December 20, 2013

  Actual Average Record
Temperature  
Mean Temperature 47 °F 29 °F  
Max Temperature 56 °F 36 °F 62 °F (1988)
Min Temperature 38 °F 22 °F -9 °F (1981)
Degree Days  
Heating Degree Days 18 36  
Month to date heating degree days 740 663  
Since 1 July heating degree days 1916 1764  
Cooling Degree Days 0 0  
Month to date cooling degree days 0 0  
Year to date cooling degree days 884 983  
Moisture  
Dew Point 48 °F    
Average Humidity 90    
Maximum Humidity 100    
Minimum Humidity 80    
Precipitation  
Precipitation 0.14 in 0.07 in 1.09 in (2012)
Month to date precipitation 0.84 1.70  
Year to date precipitation 38.32 35.77  
Sea Level Pressure  
Sea Level Pressure 29.76 in    
Wind  
Wind Speed 7 mph (SW)    
Max Wind Speed 22 mph    
Max Gust Speed 28 mph    
Visibility 7 miles    
Events Rain    
T = Trace of Precipitation, MM = Missing Value Source: NWS Daily Summary

Daily Weather History Graph

Daily Weather History Graph

Search for Another Location

Airport:

Trip Planner

Search our weather history database for the weather conditions in past years. The results will help you decide how hot, cold, wet, or windy it might be!

Date:

Astronomy

Dec. 20, 2013 Rise Set
Actual Time 8:06 AM EST 5:24 PM EST
Civil Twilight 7:36 AM EST 5:54 PM EST
Nautical Twilight 7:01 AM EST 6:29 PM EST
Astronomical Twilight 6:28 AM EST 7:02 PM EST
Moon 8:45 PM EST (12/20) 10:00 AM EST (12/20)
Length of Visible Light 10h 18m
Length of Day
9h 17m
Waning Gibbous, 90% of the Moon is Illuminated
Dec 20
Waning Gibbous
Dec 25
Last Quarter
Jan 1
New
Jan 7
First Quarter
Jan 15
Full

Hourly Weather History & Observations

Time (EST) Temp. Windchill Dew Point Humidity Pressure Visibility Wind Dir Wind Speed Gust Speed Precip Events Conditions
12:54 AM 43.0 °F 41.3 °F 39.9 °F 89% 29.83 in 10.0 mi South 3.5 mph - 0.00 in   Overcast
1:54 AM 44.1 °F 41.5 °F 41.0 °F 89% 29.82 in 6.0 mi SSW 4.6 mph - 0.00 in Rain Light Rain
2:54 AM 44.1 °F 41.5 °F 43.0 °F 96% 29.81 in 6.0 mi South 4.6 mph - 0.01 in   Overcast
3:54 AM 44.1 °F 40.8 °F 44.1 °F 100% 29.81 in 4.0 mi South 5.8 mph - 0.01 in Rain Light Rain
4:54 AM 45.0 °F 43.5 °F 45.0 °F 100% 29.79 in 7.0 mi SW 3.5 mph - 0.01 in   Overcast
5:54 AM 46.0 °F 43.1 °F 45.0 °F 96% 29.79 in 7.0 mi SSW 5.8 mph - 0.00 in Rain Light Rain
6:54 AM 45.0 °F - 45.0 °F 100% 29.78 in 5.0 mi Calm Calm - 0.00 in   Overcast
7:54 AM 46.9 °F - 46.0 °F 97% 29.78 in 9.0 mi SSW 4.6 mph - 0.00 in   Overcast
8:47 AM 46.9 °F - 46.0 °F 97% 29.78 in 2.5 mi SSW 4.6 mph - 0.05 in Rain Rain
8:54 AM 46.9 °F - 46.0 °F 97% 29.78 in 4.0 mi SSW 4.6 mph - 0.05 in Rain Light Rain
9:27 AM 48.0 °F - 46.9 °F 96% 29.79 in 2.5 mi SSW 6.9 mph - 0.03 in Rain Rain
9:54 AM 48.9 °F - 48.0 °F 97% 29.78 in 7.0 mi South 4.6 mph - 0.05 in   Overcast
10:54 AM 48.9 °F - 48.0 °F 97% 29.78 in 8.0 mi SW 4.6 mph - N/A   Overcast
11:21 AM 50.0 °F - 48.9 °F 96% 29.77 in 9.0 mi SSW 4.6 mph - N/A   Overcast
11:54 AM 50.0 °F - 50.0 °F 100% 29.77 in 5.0 mi SSW 9.2 mph - 0.00 in Rain Light Rain
12:54 PM 52.0 °F - 51.1 °F 97% 29.74 in 3.0 mi SW 9.2 mph - 0.00 in   Overcast
1:38 PM 52.0 °F - 52.0 °F 100% 29.73 in 3.0 mi SW 10.4 mph - N/A   Overcast
1:49 PM 53.6 °F - 51.8 °F 94% 29.72 in 3.0 mi SW 11.5 mph 18.4 mph N/A   Overcast
1:54 PM 53.1 °F - 52.0 °F 96% 29.72 in 3.0 mi SSW 9.2 mph 20.7 mph N/A   Overcast
2:54 PM 54.0 °F - 53.1 °F 97% 29.71 in 5.0 mi SSW 8.1 mph - N/A   Overcast
3:32 PM 55.0 °F - 53.1 °F 93% 29.70 in 7.0 mi SSW 9.2 mph 19.6 mph N/A   Overcast
3:39 PM 55.0 °F - 54.0 °F 96% 29.70 in 7.0 mi SSW 9.2 mph - N/A   Overcast
3:50 PM 55.4 °F - 53.6 °F 94% 29.71 in 7.0 mi SSW 10.4 mph - N/A   Overcast
3:54 PM 55.0 °F - 53.1 °F 93% 29.72 in 7.0 mi SW 9.2 mph - N/A   Overcast
4:26 PM 55.9 °F - 54.0 °F 93% 29.71 in 8.0 mi SW 10.4 mph - N/A   Overcast
4:54 PM 55.9 °F - 54.0 °F 93% 29.73 in 9.0 mi SW 8.1 mph - N/A   Overcast
5:54 PM 55.9 °F - 54.0 °F 93% 29.73 in 10.0 mi SSW 8.1 mph - N/A   Overcast
6:16 PM 55.9 °F - 54.0 °F 93% 29.73 in 10.0 mi SSW 8.1 mph 18.4 mph N/A   Overcast
6:51 PM 55.4 °F - 53.6 °F 94% 29.74 in 9.0 mi SW 12.7 mph 27.6 mph N/A   Overcast
6:54 PM 55.9 °F - 54.0 °F 93% 29.74 in 9.0 mi SW 11.5 mph 27.6 mph N/A   Overcast
7:54 PM 54.0 °F - 53.1 °F 97% 29.75 in 8.0 mi West 6.9 mph - N/A   Overcast
8:35 PM 53.1 °F - 52.0 °F 96% 29.75 in 7.0 mi West 13.8 mph 23.0 mph N/A   Overcast
8:54 PM 52.0 °F - 50.0 °F 93% 29.75 in 8.0 mi West 11.5 mph - N/A   Overcast
9:11 PM 51.1 °F - 48.9 °F 92% 29.76 in 10.0 mi WSW 8.1 mph - N/A   Overcast
9:54 PM 50.0 °F - 45.0 °F 83% 29.78 in 10.0 mi West 18.4 mph 23.0 mph N/A   Overcast
10:18 PM 46.0 °F 40.2 °F 43.0 °F 89% 29.78 in 10.0 mi West 12.7 mph - N/A   Overcast
10:34 PM 44.1 °F 37.4 °F 42.1 °F 93% 29.79 in 9.0 mi West 13.8 mph - N/A   Overcast
10:51 PM 42.8 °F 36.2 °F 39.2 °F 87% 29.80 in 7.0 mi West 12.7 mph - N/A   Overcast
10:54 PM 42.1 °F 35.7 °F 39.9 °F 92% 29.80 in 7.0 mi West 11.5 mph - N/A   Overcast
11:54 PM 37.9 °F 30.9 °F 36.0 °F 93% 29.81 in 8.0 mi West 10.4 mph - 0.01 in   Overcast